• In Deutschland
  • Länderverzeichnis
  • Für 7 Tage
  • Wassertemperatur
  • Satellitenkarten
  • Wetterkarte
  • Widgets
  • user-avatar
    Anmelden

    Stündliche Wetter Garmisch-Partenkirchen

    Heute, 17 Oktober, Dienstag

    Zeit Temperatur Niederschläge Wind Luftdruck Luftfeuchtigkeit
    00:00 +12°C° 0 mm 1 m/S 682 mmHg 64%
    01:00 +11°C° 0 mm 1 m/S 682 mmHg 59%
    02:00 +11°C° 0 mm 1 m/S 682 mmHg 59%
    03:00 +11°C° 0 mm 1 m/S 681 mmHg 58%
    04:00 +11°C° 0 mm 1 m/S 681 mmHg 58%
    05:00 +11°C° 0 mm 1 m/S 681 mmHg 57%
    06:00 +10°C° 0 mm 1 m/S 681 mmHg 57%
    07:00 +10°C° 0 mm 1 m/S 681 mmHg 57%
    08:00 +13°C° 0 mm 1 m/S 682 mmHg 52%
    09:00 +16°C° 0 mm 1 m/S 682 mmHg 47%
    10:00 +18°C° 0 mm 0 m/S 683 mmHg 42%
    11:00 +21°C° 0 mm 1 m/S 682 mmHg 41%
    12:00 +22°C° 0 mm 1 m/S 682 mmHg 40%
    13:00 +23°C° 0 mm 1 m/S 682 mmHg 39%
    14:00 +22°C° 0 mm 1 m/S 681 mmHg 46%
    15:00 +21°C° 0 mm 1 m/S 681 mmHg 52%
    16:00 +20°C° 0 mm 1 m/S 680 mmHg 59%
    17:00 +18°C° 0 mm 1 m/S 680 mmHg 63%
    18:00 +14°C° 0 mm 1 m/S 679 mmHg 67%
    19:00 +12°C° 0 mm 1 m/S 679 mmHg 72%
    20:00 +12°C° 0 mm 1 m/S 678 mmHg 70%
    21:00 +10°C° 0 mm 2 m/S 678 mmHg 68%
    22:00 +10°C° 0 mm 2 m/S 678 mmHg 66%
    23:00 +10°C° 0 mm 2 m/S 678 mmHg 65%

    Morgen, 18 Oktober, Mittwoch

    Zeit Temperatur Niederschläge Wind Luftdruck Luftfeuchtigkeit
    00:00 +10°C° 0 mm 2 m/S 678 mmHg 65%
    01:00 +9°C° 0 mm 2 m/S 677 mmHg 64%
    02:00 +9°C° 0 mm 2 m/S 677 mmHg 63%
    03:00 +9°C° 0 mm 2 m/S 677 mmHg 62%
    04:00 +9°C° 0 mm 2 m/S 676 mmHg 62%
    05:00 +9°C° 0 mm 2 m/S 676 mmHg 61%
    06:00 +9°C° 0 mm 1 m/S 676 mmHg 60%
    07:00 +9°C° 0 mm 1 m/S 676 mmHg 59%
    08:00 +12°C° 0 mm 1 m/S 677 mmHg 54%
    09:00 +15°C° 0 mm 1 m/S 677 mmHg 49%
    10:00 +18°C° 0 mm 1 m/S 677 mmHg 44%
    11:00 +19°C° 0 mm 1 m/S 677 mmHg 43%
    12:00 +20°C° 0 mm 1 m/S 677 mmHg 42%
    13:00 +20°C° 0 mm 1 m/S 677 mmHg 41%
    14:00 +20°C° 0 mm 1 m/S 676 mmHg 47%
    15:00 +19°C° 0 mm 1 m/S 676 mmHg 53%
    16:00 +18°C° 0 mm 1 m/S 676 mmHg 59%
    17:00 +15°C° 0 mm 1 m/S 675 mmHg 66%
    18:00 +12°C° 0 mm 1 m/S 675 mmHg 73%
    19:00 +10°C° 0 mm 1 m/S 675 mmHg 81%
    20:00 +10°C° 0 mm 1 m/S 675 mmHg 79%
    21:00 +10°C° 0 mm 1 m/S 675 mmHg 76%
    22:00 +9°C° 0 mm 1 m/S 675 mmHg 74%
    23:00 +9°C° 0 mm 1 m/S 675 mmHg 73%

    übermorgen, 19 Oktober, Donnerstag

    Zeit Temperatur Niederschläge Wind Luftdruck Luftfeuchtigkeit
    00:00 +8°C° 0 mm 2 m/S 675 mmHg 71%
    01:00 +8°C° 0 mm 2 m/S 675 mmHg 70%
    02:00 +8°C° 0 mm 2 m/S 675 mmHg 69%
    03:00 +7°C° 0 mm 2 m/S 674 mmHg 68%
    04:00 +7°C° 0 mm 2 m/S 674 mmHg 67%
    05:00 +7°C° 0 mm 2 m/S 674 mmHg 65%
    06:00 +7°C° 0 mm 2 m/S 674 mmHg 64%
    07:00 +7°C° 0 mm 2 m/S 674 mmHg 63%
    08:00 +11°C° 0 mm 1 m/S 675 mmHg 56%
    09:00 +13°C° 0 mm 1 m/S 675 mmHg 49%
    10:00 +16°C° 0 mm 1 m/S 676 mmHg 42%
    11:00 +18°C° 0 mm 1 m/S 676 mmHg 40%
    12:00 +19°C° 0 mm 1 m/S 676 mmHg 38%
    13:00 +20°C° 0 mm 1 m/S 676 mmHg 37%
    14:00 +19°C° 0 mm 1 m/S 675 mmHg 44%
    15:00 +18°C° 0 mm 1 m/S 675 mmHg 51%
    16:00 +16°C° 0 mm 1 m/S 675 mmHg 58%
    17:00 +14°C° 0 mm 1 m/S 675 mmHg 64%
    18:00 +12°C° 0 mm 1 m/S 675 mmHg 70%
    19:00 +10°C° 0 mm 1 m/S 674 mmHg 76%
    20:00 +10°C° 0 mm 1 m/S 675 mmHg 73%
    21:00 +10°C° 0 mm 1 m/S 675 mmHg 70%
    22:00 +10°C° 0 mm 1 m/S 675 mmHg 68%
    23:00 +10°C° 0 mm 1 m/S 675 mmHg 67%

    20 Oktober, Freitag

    Zeit Temperatur Niederschläge Wind Luftdruck Luftfeuchtigkeit
    00:00 +10°C° 0 mm 1 m/S 675 mmHg 66%
    01:00 +10°C° 0 mm 1 m/S 675 mmHg 65%
    02:00 +10°C° 0 mm 1 m/S 675 mmHg 66%
    03:00 +8°C° 0 mm 2 m/S 675 mmHg 68%
    04:00 +8°C° 0 mm 2 m/S 675 mmHg 69%
    05:00 +8°C° 0 mm 2 m/S 675 mmHg 70%
    06:00 +9°C° 0 mm 1 m/S 675 mmHg 70%
    07:00 +9°C° 0 mm 1 m/S 675 mmHg 71%
    08:00 +11°C° 0 mm 1 m/S 676 mmHg 65%
    09:00 +14°C° 0 mm 1 m/S 677 mmHg 59%
    10:00 +16°C° 0 mm 1 m/S 677 mmHg 52%
    11:00 +18°C° 0 mm 1 m/S 677 mmHg 51%
    12:00 +19°C° 0 mm 1 m/S 677 mmHg 49%
    13:00 +19°C° 0 mm 1 m/S 677 mmHg 47%
    14:00 +19°C° 0 mm 1 m/S 677 mmHg 52%
    15:00 +18°C° 0 mm 1 m/S 677 mmHg 57%
    16:00 +18°C° 0 mm 1 m/S 677 mmHg 61%
    17:00 +15°C° 0 mm 1 m/S 677 mmHg 68%
    18:00 +12°C° 0 mm 1 m/S 677 mmHg 74%
    19:00 +10°C° 0 mm 1 m/S 676 mmHg 81%
    20:00 +10°C° 0 mm 1 m/S 677 mmHg 80%
    21:00 +10°C° 0 mm 1 m/S 677 mmHg 79%
    22:00 +9°C° 0 mm 2 m/S 677 mmHg 77%
    23:00 +9°C° 0 mm 2 m/S 677 mmHg 76%

    21 Oktober, Samstag

    Zeit Temperatur Niederschläge Wind Luftdruck Luftfeuchtigkeit
    00:00 +9°C° 0 mm 2 m/S 677 mmHg 75%
    01:00 +9°C° 0 mm 2 m/S 677 mmHg 74%
    02:00 +9°C° 0 mm 2 m/S 677 mmHg 73%
    03:00 +8°C° 0 mm 2 m/S 677 mmHg 73%
    04:00 +8°C° 0 mm 2 m/S 677 mmHg 72%
    05:00 +8°C° 0 mm 2 m/S 677 mmHg 72%
    06:00 +8°C° 0 mm 2 m/S 677 mmHg 72%
    07:00 +8°C° 0 mm 2 m/S 677 mmHg 72%
    08:00 +12°C° 0 mm 1 m/S 677 mmHg 66%
    09:00 +15°C° 0 mm 1 m/S 678 mmHg 59%
    10:00 +18°C° 0 mm 1 m/S 678 mmHg 52%
    11:00 +19°C° 0 mm 1 m/S 678 mmHg 50%
    12:00 +20°C° 0 mm 1 m/S 678 mmHg 47%
    13:00 +21°C° 0 mm 1 m/S 677 mmHg 44%
    14:00 +20°C° 0 mm 1 m/S 677 mmHg 50%
    15:00 +18°C° 0 mm 2 m/S 677 mmHg 57%
    16:00 +17°C° 0 mm 2 m/S 677 mmHg 63%
    17:00 +15°C° 0 mm 1 m/S 676 mmHg 72%
    18:00 +13°C° 0 mm 1 m/S 676 mmHg 80%
    19:00 +11°C° 0 mm 1 m/S 675 mmHg 88%
    20:00 +11°C° 0 mm 1 m/S 675 mmHg 89%
    21:00 +10°C° 0 mm 1 m/S 675 mmHg 90%
    22:00 +10°C° 0 mm 1 m/S 675 mmHg 91%
    23:00 +10°C° 0,1 mm 1 m/S 675 mmHg 91%

    22 Oktober, Sonntag

    Zeit Temperatur Niederschläge Wind Luftdruck Luftfeuchtigkeit
    00:00 +10°C° 0,1 mm 1 m/S 675 mmHg 91%
    01:00 +11°C° 0,1 mm 1 m/S 674 mmHg 91%
    02:00 +10°C° 0,8 mm 1 m/S 674 mmHg 92%
    03:00 +9°C° 0,8 mm 2 m/S 674 mmHg 93%
    04:00 +9°C° 0,8 mm 2 m/S 674 mmHg 94%
    05:00 +8°C° 1,7 mm 2 m/S 674 mmHg 95%
    06:00 +8°C° 1,7 mm 2 m/S 674 mmHg 96%
    07:00 +7°C° 1,7 mm 2 m/S 674 mmHg 96%
    08:00 +7°C° 1,2 mm 2 m/S 674 mmHg 96%
    09:00 +7°C° 1,2 mm 2 m/S 674 mmHg 95%
    10:00 +7°C° 1,2 mm 2 m/S 674 mmHg 95%
    11:00 +7°C° 1,3 mm 2 m/S 674 mmHg 94%
    12:00 +6°C° 1,3 mm 2 m/S 674 mmHg 94%
    13:00 +6°C° 1,3 mm 2 m/S 674 mmHg 93%
    14:00 +6°C° 1,1 mm 2 m/S 674 mmHg 93%
    15:00 +6°C° 1,1 mm 2 m/S 674 mmHg 93%
    16:00 +5°C° 1,1 mm 2 m/S 675 mmHg 93%
    17:00 +5°C° 0,6 mm 2 m/S 675 mmHg 93%
    18:00 +4°C° 0,6 mm 3 m/S 675 mmHg 94%
    19:00 +3°C° 0,6 mm 3 m/S 676 mmHg 94%
    20:00 +3°C° 0,1 mm 3 m/S 676 mmHg 94%
    21:00 +2°C° 0,1 mm 3 m/S 676 mmHg 95%
    22:00 +2°C° 0,1 mm 3 m/S 676 mmHg 96%
    23:00 +1°C° 0,1 mm 3 m/S 676 mmHg 95%
    Mehr zeigen